Other Public Products
Issued by NWS Grand Forks, ND

Home | Current Version | Previous Version | Graphics & Text | Print | Product List | Glossary On
Versions: 1 2 3 4 5 6 7 8 9 10 11 12 13 14 15 16 17 18 19 20 21 22 23 24 25 26 27 28 29 30 31 32 33 34 35 36 37 38 39 40 41 42 43 44 45 46 47 48 49 50
000
FPUS83 KFGF 050031
OPUFGF
PRAIRIE TO PINES WEATHER ROUNDUP
NATIONAL WEATHER SERVICE EASTERN NORTH DAKOTA/GRAND FORKS ND
700 PM CDT FRI SEP 04 2015

 **SATELLITE DATA USED TO AUGMENT SKY COVER AT AUTOMATED STATIONS**
 *****  WEATHER ACROSS EASTERN NORTH DAKOTA  *****

CITY           SKY/WX    TMP DP  RH WIND       PRES   REMARKS
GRAND FORKS    MOCLDY    74  68  81 N9        29.81S
6HR MIN TEMP:  71; 6HR MAX TEMP:  83; 6HR PCP: TRACE;

GRAND FORKS AF FAIR      71  66  85 E7        29.82F
GRAND CITY NWS   N/A     75 N/A N/A S5          N/A
BUXTON         NOT AVBL
DEVILS LAKE    FAIR      73  64  73 SE7       29.81S
6HR MIN TEMP:  68; 6HR MAX TEMP:  75; 6HR PCP:  0.62;

FARGO          CLOUDY    77  72  84 E5        29.82S
6HR MIN TEMP:  76; 6HR MAX TEMP:  82; 6HR PCP:  0.03;

WAHPETON ARPT  FAIR      81  66  61 SE8       29.82S
$$

 *****  WEATHER ACROSS CENTRAL AND WESTERN NORTH DAKOTA  *****

CITY           SKY/WX    TMP DP  RH WIND       PRES   REMARKS
JAMESTOWN      FAIR      78  68  71 SE12      29.82R
6HR MIN TEMP:  73; 6HR MAX TEMP:  82; 6HR PCP: TRACE;

BISMARCK       SUNNY     87  66  49 N5        29.78S
6HR MIN TEMP:  78; 6HR MAX TEMP:  89; 6HR PCP: TRACE;

MINOT          CLOUDY    67  58  72 N14       29.86R
6HR MIN TEMP:  67; 6HR MAX TEMP:  79;

MINOT AFB      CLOUDY    67  61  81 N13       29.86R
6HR MIN TEMP:  67; 6HR MAX TEMP:  75; 6HR PCP: TRACE;

GARRISON         N/A     72  61  68 N13       29.84R
6HR MIN TEMP:  72; 6HR MAX TEMP:  83; 6HR PCP:  0.01;

WILLISTON      SUNNY     74  57  55 NE10      29.87R
6HR MIN TEMP:  66; 6HR MAX TEMP:  78;

DICKINSON      SUNNY     80  63  55 NE14      29.81S
6HR MIN TEMP:  68; 6HR MAX TEMP:  80;

HETTINGER      SUNNY     90  54  29 SE7       29.79S
6HR MIN TEMP:  83; 6HR MAX TEMP:  91;

$$

 *****  OTHER OBSERVATIONS NORTHEAST NORTH DAKOTA  *****

CITY           SKY/WX    TMP DP  RH WIND       PRES   REMARKS
WALHALLA       FAIR      68  68 100 MISG      29.86R
LANGDON        FAIR      70  63  78 NW5       29.89R
CAVALIER       FAIR      68  64  88 W8        29.84R
GRAFTON        FAIR      68  68 100 SE3       29.83R
CANDO          CLOUDY    72  68  88 NE6       29.86R
FORT TOTTEN      N/A     74  69  85 E5        29.95S
ROLLA          CLOUDY    63  63 100 NE14      29.91R
RUGBY          FAIR      72  68  88 NE10      29.84S
 ***** THE ABOVE OBSERVATIONS ARE NON NWS ARE NOT QUALITY
        CONTROLLED AND MAY MIS-REPORT RAIN FOR SNOW...
$$

 *****  OTHER OBSERVATIONS SOUTHEAST NORTH DAKOTA *****

CITY           SKY/WX    TMP DP  RH WIND       PRES   REMARKS
COOPERSTOWN    NOT AVBL
VALLEY CITY    MOCLDY    77  73  88 SE10      29.84S
OAKES            N/A     81  81 100 SE9       29.80S HX  91
GWINNER          N/A     82  82 100 SE9       29.81S HX  97
SHEYENNE NWR     N/A     77  72  85 E6        29.95S
BUFFALO        NOT AVBL
WYNDMERE         N/A     82  72  69 SE8         N/A
 ***** THE ABOVE OBSERVATIONS ARE NON NWS ARE NOT QUALITY
       CONTROLLED AND MAY MIS-REPORT RAIN FOR SNOW...
$$

  *****  WEATHER ACROSS NORTHERN MINNESOTA  *****

CITY           SKY/WX    TMP DP  RH WIND       PRES   REMARKS
FLAG ISLAND    CLOUDY    73  70  88 S6        29.83S
WARROAD        TSTM      72  66  83 SE12      29.85S
ROSEAU         LGT RAIN  73  68  83 SE6       29.83F
HALLOCK        FAIR      70  68  94 SE10      29.79F
THF RVR FALLS  MOCLDY    75  72  88 S6        29.84S
6HR MIN TEMP:  73; 6HR MAX TEMP:  82; 6HR PCP:  0.02;

HALSTAD        NOT AVBL
FOSSTON        MOCLDY    75  72  88 CALM      29.87S THUNDER
BAUDETTE       MOCLDY    80  70  71 S9        29.86S
6HR MIN TEMP:  80; 6HR MAX TEMP:  86;

WASKISH        FAIR      79  72  78 S6        29.87F
CROOKSTON      FAIR      75  72  88 S10       29.83F
$$
  *****  WEATHER ACROSS CENTRAL AND WEST MINNESOTA  *****

CITY           SKY/WX    TMP DP  RH WIND       PRES   REMARKS
BEMIDJI        MOCLDY    77  72  85 SE8       29.88F
PARK RAPIDS    MOCLDY    80  72  76 E3        29.89R
6HR MIN TEMP:  78; 6HR MAX TEMP:  85; 6HR PCP:  0.02;

WADENA         MOCLDY    79  70  73 SE3       29.87S
DETROIT LAKES  TSTM      77  72  83 E3        29.88S
MOORHEAD       MOCLDY    77  73  88 E3        29.83S
FERGUS FALLS   FAIR      81  72  74 SE6       29.83S
ELBOW LAKE     FAIR      79  73  82 S9        29.85F HAZE
6HR MIN TEMP:  76; 6HR MAX TEMP:  83;

MORRIS MN      FAIR      79  72  78 SE9       29.85S
STAPLES        MOCLDY    79  72  78 SE3       29.88S
WHEATON        FAIR      79  70  73 SE10G18   29.83F
$$
  *****  WEATHER ELSEWHERE ACROSS MINNESOTA  *****

CITY           SKY/WX    TMP DP  RH WIND       PRES   REMARKS
DULUTH         FAIR      71  63  75 E12       29.97S
6HR MIN TEMP:  71; 6HR MAX TEMP:  77;

INTRNTL FALLS  MOCLDY    80  70  71 SE8       29.88F
6HR MIN TEMP:  80; 6HR MAX TEMP:  86;

ELY            FAIR      73  63  68 SE9       29.97F
CLOQUET        FAIR      66  59  77 E9        29.96S
BRAINERD       FAIR      81  72  74 SE5       29.90R
6HR MIN TEMP:  81; 6HR MAX TEMP:  86;

HIBBING        FAIR      76  68  76 SE9       29.93F
6HR MIN TEMP:  76; 6HR MAX TEMP:  83;

ALEXANDRIA     CLOUDY    78  72  81 S8        29.89S
6HR MIN TEMP:  78; 6HR MAX TEMP:  86; 6HR PCP:  0.01;

SAINT CLOUD    FAIR      83  74  74 SE8       29.88S
6HR MIN TEMP:  82; 6HR MAX TEMP:  89;

MINNEAPOLIS    MOCLDY    85  72  65 SE10      29.90S HX  91
6HR MIN TEMP:  84; 6HR MAX TEMP:  89;

$$

  *****  WEATHER ACROSS SOUTH DAKOTA  *****

CITY           SKY/WX    TMP DP  RH WIND       PRES   REMARKS
SIOUX FALLS    MOCLDY    82  71  69 SE17G26   29.84S
6HR MIN TEMP:  73; 6HR MAX TEMP:  83; 6HR PCP:  0.01;

BROOKINGS      FAIR      79  70  73 SE14G22   29.86R
WATERTOWN      FAIR      80  67  64 S13       29.84R
6HR MIN TEMP:  76; 6HR MAX TEMP:  85;

HURON          PTSUNNY   83  71  67 SE13G22   29.76R
6HR MIN TEMP:  83; 6HR MAX TEMP:  89;

SISSETON         N/A     83  71  67 SE12      29.80F
ABERDEEN       PTSUNNY   85  71  63 SE6       29.78R HX  90
6HR MIN TEMP:  81; 6HR MAX TEMP:  88;

MITCHELL       MOSUNNY   86  73  65 SE12      29.76R HX  93
PIERRE         MOSUNNY   87  66  49 E9        29.73R
6HR MIN TEMP:  85; 6HR MAX TEMP:  92;

MOBRIDGE       SUNNY     88  66  48 E8        29.75R HX  90
RAPID CITY     MOSUNNY   86  63  45 N9        29.78S
6HR MIN TEMP:  83; 6HR MAX TEMP:  90;

$$

  *****  SOME WEATHER IN NEARBY STATES *****

CITY           SKY/WX    TMP DP  RH WIND       PRES   REMARKS
GLASGOW MT     CLOUDY    69  53  56 N15       29.88R
6HR MIN TEMP:  69; 6HR MAX TEMP:  77; 6HR PCP: TRACE;

GREAT FALLS MT CLOUDY    51  48  89 N9        30.00S
6HR MIN TEMP:  50; 6HR MAX TEMP:  52; 6HR PCP:  0.02;

CHEYENNE WY    CLOUDY    71  46  40 W10       30.04R
6HR MIN TEMP:  71; 6HR MAX TEMP:  87; 6HR PCP: TRACE;

SCOTTSBLUFF NE CLOUDY    82  51  34 E6        29.86S
6HR MIN TEMP:  82; 6HR MAX TEMP:  93;

OMAHA NE       MOCLDY    86  70  58 SE20      29.86R HX  90
6HR MIN TEMP:  85; 6HR MAX TEMP:  90;

DES MOINES IA  FAIR      87  71  58 S7        29.93S HX  93
6HR MIN TEMP:  86; 6HR MAX TEMP:  91;

DAVENPORT IA   FAIR      85  71  63 S5        29.97S HX  90
6HR MIN TEMP:  85; 6HR MAX TEMP:  90;

CHICAGO IL     FAIR      73  67  81 E10       30.03R
6HR MIN TEMP:  73; 6HR MAX TEMP:  85;

EAU CLAIRE WI  FAIR      81  71  71 E8        29.96R
6HR MIN TEMP:  81; 6HR MAX TEMP:  86;

LA CROSSE WI   FAIR      85  70  60 SE7       29.95R
6HR MIN TEMP:  85; 6HR MAX TEMP:  89;

$$

  *****  SOME NATIONAL WEATHER *****

CITY           SKY/WX    TMP DP  RH WIND       PRES   REMARKS



USA.gov is the U.S. government's official web portal to all federal, state and local government web resources and services.